This is the latest recevied weather packets stored in our database for station/object WX9WTF. If no packets are shown the sender has not sent any weather packets the latest 10 day(s).
| Time | Temp. | Humidity | Pressure | Rain* | Wind** | Luminosity | Snow |
|---|---|---|---|---|---|---|---|
| 1778120676 | 8.33° C | 70% | 1018.5 hPa | 0 mm | - | 0 W/m² | - |
| 1778120371 | 8.33° C | 69% | 1018.5 hPa | 0 mm | - | 0 W/m² | - |
| 1778120066 | 8.33° C | 72% | 1018.5 hPa | 0 mm | - | 0 W/m² | - |
| 1778119765 | 8.89° C | 67% | 1018.4 hPa | 0 mm | - | 0 W/m² | - |
| 1778119461 | 8.89° C | 65% | 1018.5 hPa | 0 mm | - | 0 W/m² | - |
| 1778119158 | 8.89° C | 65% | 1018.6 hPa | 0 mm | - | 0 W/m² | - |
| 1778118856 | 8.89° C | 61% | 1018.4 hPa | 0 mm | - | 0 W/m² | - |
| 1778118553 | 9.44° C | 60% | 1018.4 hPa | 0 mm | - | 0 W/m² | - |
| 1778118249 | 10° C | 62% | 1018.4 hPa | 0 mm | - | 0 W/m² | - |
| 1778117945 | 10° C | 62% | 1018.2 hPa | 0 mm | - | 0 W/m² | - |
| 1778117643 | 10.56° C | 54% | 1018.2 hPa | 0 mm | - | 0 W/m² | - |
| 1778117340 | 10.56° C | 52% | 1018.1 hPa | 0 mm | - | 0 W/m² | - |
| 1778117035 | 11.11° C | 53% | 1018.1 hPa | 0 mm | - | 1 W/m² | - |
| 1778116733 | 11.11° C | 51% | 1017.8 hPa | 0 mm | - | 2 W/m² | - |
| 1778116430 | 11.67° C | 47% | 1017.7 hPa | 0 mm | - | 4 W/m² | - |
| 1778116123 | 12.22° C | 44% | 1017.6 hPa | 0 mm | - | 7 W/m² | - |
| 1778115820 | 12.78° C | 43% | 1017.8 hPa | 0 mm | - | 10 W/m² | - |
| 1778115517 | 13.33° C | 40% | 1017.7 hPa | 0 mm | - | 14 W/m² | - |
| 1778115214 | 13.33° C | 39% | 1017.7 hPa | 0 mm | - | 17 W/m² | - |
| 1778114911 | 13.89° C | 38% | 1017.7 hPa | 0 mm | - | 20 W/m² | - |
| 1778114608 | 13.89° C | 38% | 1017.7 hPa | 0 mm | - | 24 W/m² | - |
| 1778114305 | 14.44° C | 38% | 1017.7 hPa | 0 mm | - | 28 W/m² | - |
| 1778114000 | 15° C | 36% | 1017.8 hPa | 0 mm | - | 31 W/m² | - |
| 1778113695 | 15° C | 37% | 1017.6 hPa | 0 mm | - | 40 W/m² | - |
| 1778113392 | 15° C | 35% | 1017.8 hPa | 0 mm | - | 47 W/m² | - |
* Rain latest hour (hover to see other rain measurements)
** Current wind speed in m/s (hover to see current wind gust speed)